Weather History for Gwinner, ND

Change the Weather History Date:

Saturday, March 15, 2014

  Actual Average (KP67) Record (KP67)
Temperature  
Mean Temperature 20 °F -  
Max Temperature 26 °F 27 °F 28 °F (1998)
Min Temperature 14 °F 12 °F -11 °F (1997)
Degree Days  
Heating Degree Days 45    
Moisture  
Dew Point 12 °F    
Average Humidity 69    
Maximum Humidity 86    
Minimum Humidity 51    
Precipitation  
Precipitation 0.00 in - - ()
Sea Level Pressure  
Sea Level Pressure 30.24 in    
Wind  
Wind Speed 14 mph (NNE)    
Max Wind Speed 21 mph    
Max Gust Speed 25 mph    
Visibility 10 miles    
Events      
Averages and records for this station are not official NWS values.
T = Trace of Precipitation, MM = Missing Value Source: NWS Daily Summary

Daily Weather History Graph

Daily Weather History Graph

Search for Another Location

Airport:

Trip Planner

Search our weather history database for the weather conditions in past years. The results will help you decide how hot, cold, wet, or windy it might be!

Date:

Astronomy

Mar. 15, 2014 Rise Set
Actual Time 7:43 AM CDT 7:36 PM CDT
Civil Twilight 7:13 AM CDT 8:06 PM CDT
Nautical Twilight 6:38 AM CDT 8:41 PM CDT
Astronomical Twilight 6:02 AM CDT 9:17 PM CDT
Moon 6:56 PM CDT (3/15) 6:57 AM CDT (3/15)
Length of Visible Light 12h 53m
Length of Day
11h 53m
Waxing Gibbous, 99% of the Moon is Illuminated
Mar 15
Waxing Gibbous
Mar 16
Full
Mar 23
Last Quarter
Mar 30
New
Apr 7
First Quarter

Hourly Weather History & Observations

Time (CDT) Temp. Windchill Dew Point Humidity Pressure Visibility Wind Dir Wind Speed Gust Speed Precip Events Conditions
12:15 AM 26.6 °F 15.7 °F 21.2 °F 80% 29.99 in 10.0 mi NE 12.7 mph - 0.00 in   Scattered Clouds
12:35 AM 24.8 °F 13.4 °F 21.2 °F 86% 29.99 in 10.0 mi NE 12.7 mph - 0.00 in   Scattered Clouds
12:55 AM 24.8 °F 14.0 °F 21.2 °F 86% 29.99 in 10.0 mi ENE 11.5 mph - 0.00 in   Mostly Cloudy
1:15 AM 24.8 °F 12.4 °F 21.2 °F 86% 29.99 in 10.0 mi ENE 15.0 mph - 0.00 in   Mostly Cloudy
1:35 AM 23.0 °F 11.7 °F 19.4 °F 86% 30.01 in 10.0 mi NE 11.5 mph - 0.00 in   Mostly Cloudy
1:55 AM 23.0 °F 11.1 °F 17.6 °F 80% 30.02 in 10.0 mi NE 12.7 mph - 0.00 in   Overcast
2:15 AM 23.0 °F 13.1 °F 17.6 °F 80% 30.03 in 10.0 mi NE 9.2 mph - 0.00 in   Overcast
2:35 AM 21.2 °F 10.1 °F 17.6 °F 86% 30.02 in 10.0 mi NE 10.4 mph - 0.00 in   Overcast
2:55 AM 21.2 °F 11.7 °F 17.6 °F 86% 30.04 in 10.0 mi NE 8.1 mph - 0.00 in   Scattered Clouds
3:15 AM 21.2 °F 8.9 °F 15.8 °F 80% 30.03 in 10.0 mi NE 12.7 mph - 0.00 in   Partly Cloudy
3:35 AM 21.2 °F 9.5 °F 17.6 °F 86% 30.03 in 10.0 mi NNE 11.5 mph - 0.00 in   Clear
3:55 AM 21.2 °F 9.5 °F 17.6 °F 86% 30.03 in 10.0 mi NNE 11.5 mph - 0.00 in   Scattered Clouds
4:15 AM 21.2 °F 8.3 °F 15.8 °F 80% 30.03 in 10.0 mi NE 13.8 mph - 0.00 in   Mostly Cloudy
4:35 AM 19.4 °F 6.6 °F 12.2 °F 74% 30.05 in 10.0 mi NE 12.7 mph - 0.00 in   Mostly Cloudy
4:55 AM 19.4 °F 6.6 °F 14.0 °F 80% 30.06 in 10.0 mi NNE 12.7 mph - 0.00 in   Mostly Cloudy
5:15 AM 19.4 °F 6.6 °F 14.0 °F 80% 30.06 in 10.0 mi NNE 12.7 mph - 0.00 in   Overcast
5:35 AM 17.6 °F 4.3 °F 12.2 °F 79% 30.07 in 10.0 mi NNE 12.7 mph - 0.00 in   Overcast
5:55 AM 17.6 °F 4.3 °F 12.2 °F 79% 30.08 in 10.0 mi NE 12.7 mph - 0.00 in   Mostly Cloudy
6:15 AM 17.6 °F 5.0 °F 12.2 °F 79% 30.08 in 10.0 mi NNE 11.5 mph - 0.00 in   Scattered Clouds
6:35 AM 17.6 °F 5.7 °F 12.2 °F 79% 30.08 in 10.0 mi NNE 10.4 mph - 0.00 in   Clear
6:55 AM 17.6 °F 3.7 °F 12.2 °F 79% 30.08 in 10.0 mi NNE 13.8 mph - 0.00 in   Clear
7:15 AM 15.8 °F 1.4 °F 12.2 °F 86% 30.09 in 10.0 mi NNE 13.8 mph - 0.00 in   Clear
7:35 AM 15.8 °F -0.2 °F 10.4 °F 79% 30.10 in 10.0 mi NNE 17.3 mph - 0.00 in   Partly Cloudy
7:55 AM 15.8 °F -0.2 °F 10.4 °F 79% 30.11 in 10.0 mi NNE 17.3 mph - 0.00 in   Mostly Cloudy
8:15 AM 15.8 °F -0.2 °F 10.4 °F 79% 30.12 in 10.0 mi NNE 17.3 mph - 0.00 in   Partly Cloudy
8:35 AM 15.8 °F -0.2 °F 10.4 °F 79% 30.13 in 10.0 mi NNE 17.3 mph - 0.00 in   Mostly Cloudy
8:55 AM 15.8 °F -0.2 °F 8.6 °F 73% 30.14 in 10.0 mi NNE 17.3 mph - 0.00 in   Scattered Clouds
9:15 AM 17.6 °F 1.3 °F 8.6 °F 68% 30.15 in 10.0 mi NNE 19.6 mph - 0.00 in   Mostly Cloudy
9:35 AM 17.6 °F 2.2 °F 10.4 °F 73% 30.17 in 10.0 mi NNE 17.3 mph - 0.00 in   Overcast
9:55 AM 17.6 °F 1.7 °F 8.6 °F 68% 30.18 in 10.0 mi NNE 18.4 mph - 0.00 in   Mostly Cloudy
10:15 AM 17.6 °F 1.3 °F 8.6 °F 68% 30.19 in 10.0 mi NNE 19.6 mph - 0.00 in   Scattered Clouds
10:35 AM 17.6 °F 1.3 °F 8.6 °F 68% 30.20 in 10.0 mi NNE 19.6 mph - 0.00 in   Scattered Clouds
10:55 AM 19.4 °F 4.1 °F 8.6 °F 63% 30.22 in 10.0 mi NNE 18.4 mph - 0.00 in   Partly Cloudy
11:15 AM 19.4 °F 4.1 °F 8.6 °F 63% 30.23 in 10.0 mi North 18.4 mph - 0.00 in   Clear
11:35 AM 19.4 °F 4.5 °F 8.6 °F 63% 30.24 in 10.0 mi NNE 17.3 mph - 0.00 in   Clear
11:55 AM 21.2 °F 6.8 °F 10.4 °F 63% 30.25 in 10.0 mi NNE 17.3 mph - 0.00 in   Partly Cloudy
12:15 PM 21.2 °F 5.6 °F 10.4 °F 63% 30.26 in 10.0 mi NNE 20.7 mph 25.3 mph 0.00 in   Clear
12:35 PM 23.0 °F 8.3 °F 10.4 °F 59% 30.27 in 10.0 mi NNE 19.6 mph - 0.00 in   Clear
12:55 PM 23.0 °F 8.0 °F 8.6 °F 54% 30.28 in 10.0 mi NNE 20.7 mph - 0.00 in   Clear
1:15 PM 23.0 °F 8.3 °F 10.4 °F 59% 30.29 in 10.0 mi NNE 19.6 mph 24.2 mph 0.00 in   Clear
1:35 PM 23.0 °F 9.6 °F 10.4 °F 59% 30.29 in 10.0 mi NNE 16.1 mph 24.2 mph 0.00 in   Clear
1:55 PM 23.0 °F 9.2 °F 10.4 °F 59% 30.29 in 10.0 mi NNE 17.3 mph 21.9 mph 0.00 in   Clear
2:15 PM 24.8 °F 11.5 °F 10.4 °F 54% 30.30 in 10.0 mi NNE 17.3 mph - 0.00 in   Clear
2:35 PM 26.6 °F 13.4 °F 10.4 °F 51% 30.30 in 10.0 mi NE 18.4 mph 23.0 mph 0.00 in   Clear
2:55 PM 26.6 °F 14.3 °F 10.4 °F 51% 30.31 in 10.0 mi NNE 16.1 mph - 0.00 in   Clear
3:15 PM 26.6 °F 13.8 °F 10.4 °F 51% 30.31 in 10.0 mi NE 17.3 mph 21.9 mph 0.00 in   Clear
3:35 PM 26.6 °F 14.7 °F 10.4 °F 51% 30.32 in 10.0 mi NNE 15.0 mph - 0.00 in   Clear
3:55 PM 26.6 °F 13.8 °F 10.4 °F 51% 30.33 in 10.0 mi North 17.3 mph 21.9 mph 0.00 in   Clear
4:15 PM 26.6 °F 14.3 °F 10.4 °F 51% 30.34 in 10.0 mi North 16.1 mph 20.7 mph 0.00 in   Clear
4:35 PM 26.6 °F 14.3 °F 10.4 °F 51% 30.35 in 10.0 mi NNE 16.1 mph - 0.00 in   Clear
4:55 PM 26.6 °F 14.3 °F 10.4 °F 51% 30.36 in 10.0 mi North 16.1 mph 19.6 mph 0.00 in   Clear
5:15 PM 26.6 °F 13.8 °F 10.4 °F 51% 30.37 in 10.0 mi NNE 17.3 mph - 0.00 in   Clear
5:35 PM 26.6 °F 14.3 °F 10.4 °F 51% 30.38 in 10.0 mi North 16.1 mph 21.9 mph 0.00 in   Clear
5:55 PM 24.8 °F 11.5 °F 10.4 °F 54% 30.38 in 10.0 mi NNE 17.3 mph 23.0 mph 0.00 in   Clear
6:15 PM 24.8 °F 10.7 °F 10.4 °F 54% 30.39 in 10.0 mi NNE 19.6 mph - 0.00 in   Clear
6:35 PM 23.0 °F 9.6 °F 10.4 °F 59% 30.40 in 10.0 mi NNE 16.1 mph 21.9 mph 0.00 in   Clear
6:55 PM 23.0 °F 9.2 °F 10.4 °F 59% 30.41 in 10.0 mi NNE 17.3 mph - 0.00 in   Clear
7:15 PM 21.2 °F 6.8 °F 10.4 °F 63% 30.42 in 10.0 mi NNE 17.3 mph - 0.00 in   Clear
7:35 PM 21.2 °F 7.3 °F 10.4 °F 63% 30.43 in 10.0 mi NNE 16.1 mph - 0.00 in   Clear
7:55 PM 21.2 °F 7.8 °F 10.4 °F 63% 30.43 in 10.0 mi NNE 15.0 mph - 0.00 in   Clear
8:15 PM 19.4 °F 5.5 °F 10.4 °F 68% 30.44 in 10.0 mi NNE 15.0 mph - 0.00 in   Clear
8:35 PM 19.4 °F 5.5 °F 10.4 °F 68% 30.45 in 10.0 mi NNE 15.0 mph - 0.00 in   Clear
8:55 PM 19.4 °F 5.0 °F 10.4 °F 68% 30.46 in 10.0 mi NNE 16.1 mph - 0.00 in   Clear
9:15 PM 19.4 °F 6.6 °F 10.4 °F 68% 30.47 in 10.0 mi NNE 12.7 mph - 0.00 in   Clear
9:35 PM 17.6 °F 4.3 °F 10.4 °F 73% 30.47 in 10.0 mi NNE 12.7 mph - 0.00 in   Clear
9:55 PM 17.6 °F 5.0 °F 10.4 °F 73% 30.47 in 10.0 mi NNE 11.5 mph - 0.00 in   Clear
10:15 PM 17.6 °F 4.3 °F 8.6 °F 68% 30.48 in 10.0 mi NNE 12.7 mph - 0.00 in   Clear
10:35 PM 15.8 °F 2.7 °F 10.4 °F 79% 30.48 in 10.0 mi NNE 11.5 mph - 0.00 in   Clear
10:55 PM 15.8 °F 2.7 °F 10.4 °F 79% 30.48 in 10.0 mi NNE 11.5 mph - 0.00 in   Clear
11:15 PM 14.0 °F -0.2 °F 8.6 °F 79% 30.48 in 10.0 mi NNE 12.7 mph - 0.00 in   Clear
11:35 PM 14.0 °F 2.0 °F 8.6 °F 79% 30.48 in 10.0 mi NNE 9.2 mph - 0.00 in   Clear
11:55 PM 14.0 °F 1.2 °F 8.6 °F 79% 30.49 in 10.0 mi NNE 10.4 mph - 0.00 in   Clear